SCP
-0 -0 -0 -0 -0 -0 -0 0 0 0 0 0 0 0 0 0 0 0 0 0 0 1 1 1 1 1 1 1 1 1 1 1 1 1 1 1 1 1 1 1 1 1 1
-0 -0 -0 -0 -0 -0 0 0 0 0 0 0 0 0 0 0 0 0 0 0 0 0 0 1 1 1 1 1 1 1 1 1 1 1 1 1 1 1 1 1 1 1 1
0 0 0 0 0 0 0 0 0 0 0 0 0 0 0 0 0 0 0 0 0 0 0 0 0 1 1 1 1 1 1 1 1 1 1 1 1 1 1 1 1 1 1
0 0 0 0 0 0 0 0 0 0 0 0 0 0 0 0 0 0 0 0 0 0 0 0 0 0 1 1 1 1 1 1 1 1 1 1 1 1 1 1 1 1 1
0 0 0 0 0 0 0 0 0 0 0 0 0 0 0 0 0 0 0 0 0 0 0 0 0 0 0 0 0 0 0 0 0 0 0 0 0 0 0 0 0 1 1
0 0 0 0 0 0 0 0 0 0 0 0 0 0 0 0 0 0 0 0 0 0 0 0 0 0 0 0 0 0 0 0 0 0 0 0 0 0 0 0 0 0 0
0 0 0 0 0 0 0 0 0 0 0 0 0 0 0 0 0 0 0 0 0 0 0 0 0 0 0 0 0 0 0 0 0 0 0 0 0 0 0 0 0 0 0
0 0 0 0 0 0 0 0 0 0 0 0 0 0 0 0 0 0 0 0 0 0 0 0 0 0 0 0 0 0 0 0 0 0 0 0 0 0 0 0 0 0 0
0 0 0 0 0 0 0 0 0 0 0 0 0 0 0 0 0 0 0 0 0 0 0 0 0 0 0 0 0 0 0 0 0 0 0 0 0 0 0 0 0 0 0
0 0 0 0 0 0 0 0 0 0 0 0 0 0 0 0 0 0 0 0 0 0 0 0 0 0 0 0 0 0 0 0 0 0 0 0 0 0 0 0 0 0 0
0 0 0 0 0 0 0 0 0 0 0 0 0 0 0 0 0 0 0 0 0 0 0 0 0 0 0 0 0 0 0 0 0 0 0 0 0 0 0 0 0 0 0
0 0 0 0 0 0 0 0 0 0 0 0 0 0 0 0 0 0 0 0 0 0 0 0 0 0 0 0 0 0 0 0 0 0 0 0 0 0 0 0 0 0 0
0 0 0 0 0 0 0 0 0 0 0 0 0 0 0 0 0 0 0 0 0 0 0 0 0 0 0 0 0 0 0 0 0 0 0 0 0 0 0 0 0 0 0
0 0 0 0 0 0 0 0 0 0 0 0 0 0 0 0 0 0 0 0 0 0 0 0 0 0 0 0 0 0 0 0 0 0 0 0 0 0 0 0 0 0 0
0 0 0 0 0 0 0 0 0 0 0 0 0 0 0 0 0 0 0 0 0 0 0 0 0 0 0 0 0 0 0 0 0 0 0 0 0 0 0 0 0 0 0
0 0 0 0 0 0 0 0 0 0 0 0 0 0 0 0 0 0 0 0 0 0 0 0 0 0 0 0 0 0 0 0 0 0 0 0 0 0 0 0 0 0 0
0 0 0 0 0 0 0 0 0 0 0 0 0 0 0 0 0 0 0 0 0 0 0 0 0 0 0 0 0 0 0 0 0 0 0 0 0 0 0 0 0 0 0
0 0 0 0 0 0 0 0 0 0 0 0 0 0 0 0 0 0 0 0 0 0 0 0 0 0 0 0 0 0 0 0 0 0 0 0 0 0 0 0 0 0 0
0 0 0 0 0 0 0 0 0 0 0 0 0 0 0 0 0 0 0 0 0 0 0 0 0 0 0 0 0 0 0 0 0 0 0 0 0 0 0 0 0 0 0
0 0 0 0 0 0 0 0 0 0 0 0 0 0 0 0 0 0 0 0 0 0 0 0 0 0 0 0 0 0 0 0 0 0 0 0 0 0 0 0 0 0 0
0 0 0 0 0 0 0 0 0 0 0 0 0 0 0 0 0 0 0 0 0 0 0 0 0 0 0 0 0 0 0 0 0 0 0 0 0 0 0 0 0 0 0
0 0 0 0 0 0 0 0 0 0 0 0 0 0 0 0 0 0 0 0 0 0 0 0 0 0 0 0 0 0 0 0 0 0 0 0 0 0 0 0 0 0 0
0 0 0 0 0 0 0 0 0 0 0 0 0 0 0 0 0 0 0 0 0 0 0 0 0 0 0 0 0 0 0 0 0 0 0 0 0 0 0 0 0 0 0
0 0 0 0 0 0 0 0 0 0 0 0 0 0 0 0 0 0 0 0 0 0 0 0 0 0 0 0 0 0 0 0 0 0 0 0 0 0 0 0 0 0 0
0 0 0 0 0 0 0 0 0 0 0 0 0 0 0 0 0 0 0 0 0 0 0 0 0 0 0 0 0 0 0 0 0 0 0 0 0 0 0 0 0 0 0
0 0 0 0 0 0 0 0 0 0 0 0 0 0 0 0 0 0 0 0 0 0 0 0 0 0 0 0 0 0 0 0 0 0 0 0 0 0 0 0 0 0 0
Wind_Speed
4 3 1 1 1 1 1 1 1 3 4 4 5 6 6 6 5 4 3 7 7 5 7 8 9 9 9 8 8 7 7 7 7 6 6 5 4 4 3 3 4 4 5
3 3 2 1 1 2 2 2 3 4 4 4 6 6 6 6 5 5 5 6 9 9 8 8 10 11 11 10 8 8 8 8 7 7 7 6 6 6 5 4 4 4 4
3 3 2 2 2 3 4 4 5 4 4 4 6 6 5 5 5 5 5 4 5 8 10 9 8 9 10 12 11 10 9 8 7 7 6 6 6 6 5 5 4 4 4
4 3 2 2 3 3 4 4 3 4 4 4 3 3 3 3 5 5 5 6 5 5 8 12 11 9 7 7 8 8 8 8 8 8 8 7 7 6 6 5 5 5 5
4 4 3 3 4 4 4 4 3 3 3 2 3 3 3 3 4 5 7 7 7 7 6 10 14 14 13 11 9 6 5 5 6 7 8 8 8 7 6 6 6 6 6
7 7 5 5 5 5 4 3 4 4 2 1 2 4 4 4 4 5 6 6 6 8 8 8 8 10 15 15 13 10 9 8 7 7 8 8 8 7 7 7 7 8 8
8 7 6 5 5 4 4 3 3 4 3 1 2 2 3 4 5 4 4 5 6 6 7 7 6 5 6 12 13 12 11 10 10 10 10 10 9 8 9 9 9 9 9
7 7 7 6 5 5 4 3 3 3 2 3 2 2 2 1 2 3 2 4 4 4 5 5 5 5 4 4 7 11 11 11 11 11 12 12 12 11 11 11 12 12 12
5 6 6 6 5 5 4 4 3 4 3 2 3 2 2 1 2 1 1 1 2 2 2 2 3 3 3 3 4 7 10 11 11 12 13 13 13 14 13 14 14 15 15
5 6 6 7 6 4 5 4 4 3 4 2 2 3 2 2 1 2 2 2 2 2 3 3 4 4 4 3 5 9 11 11 12 13 14 15 15 15 16 16 17 17 18
5 6 6 6 5 4 5 5 5 4 3 3 2 2 2 2 1 1 4 4 4 3 4 4 4 5 5 5 4 8 12 13 14 15 16 17 17 17 18 18 19 20 20
4 5 6 5 5 4 5 4 4 5 3 3 2 2 2 2 2 3 4 5 6 6 5 5 5 5 5 5 7 12 15 16 16 17 17 18 19 19 19 20 20 21 22
4 4 4 4 4 4 4 4 4 3 3 2 2 1 2 2 2 3 3 5 6 5 4 4 5 5 6 5 6 14 15 16 17 17 18 19 20 21 21 21 21 22 22
4 4 4 4 4 4 4 4 3 3 2 2 1 0 1 2 2 3 3 4 7 6 5 6 4 5 6 6 8 15 11 16 17 18 19 20 21 22 23 23 23 23 23
4 5 5 5 5 5 5 5 4 4 4 3 2 2 1 1 2 2 3 3 5 9 10 6 4 4 6 7 10 9 9 14 18 19 20 21 22 23 24 25 25 25 25
5 5 6 6 6 6 6 6 5 4 5 3 2 3 2 2 3 3 3 3 4 6 9 5 6 8 9 10 14 12 11 18 20 20 20 20 21 22 23 24 25 26 26
6 7 7 7 7 7 5 5 5 4 5 4 4 4 5 4 3 4 4 4 4 5 10 10 7 8 10 12 12 11 11 11 11 18 20 20 21 21 21 22 22 22 23
7 7 7 7 6 6 5 5 5 5 5 5 5 5 6 5 6 5 4 5 6 6 8 13 11 9 11 12 13 13 12 11 10 16 20 21 21 21 20 19 19 18 17
7 6 6 6 5 4 4 4 4 4 4 4 5 6 7 7 7 6 7 7 7 8 8 10 12 10 9 9 11 11 12 10 11 13 17 18 20 20 19 18 17 15 15
6 5 5 4 4 3 3 3 3 4 5 6 6 6 7 7 8 9 7 8 8 9 9 10 10 9 9 9 8 8 9 8 9 10 13 14 17 20 20 19 18 17 15
5 4 4 4 3 2 2 3 3 5 6 7 8 7 8 11 11 9 8 9 9 8 8 8 9 8 9 8 7 6 9 9 10 9 9 9 9 9 10 14 17 18 16
5 4 4 3 3 3 5 6 6 4 6 7 8 9 9 9 11 14 15 16 15 12 10 8 8 9 10 9 8 7 8 8 6 4 5 7 7 9 9 8 13 16 16
4 4 4 3 3 4 6 7 10 6 6 7 8 8 8 8 11 9 12 16 15 17 16 11 10 10 11 9 9 9 8 8 8 6 6 8 7 9 8 9 14 15 15
3 3 3 3 3 4 7 8 11 7 7 8 8 8 9 10 9 10 11 11 11 11 12 9 9 10 10 9 8 8 8 8 7 7 6 7 6 7 7 6 10 12 12
3 3 2 3 4 5 8 9 10 6 7 9 9 9 9 9 12 14 11 11 11 10 10 12 13 12 13 13 10 6 5 5 6 5 3 3 3 4 5 4 4 7 9
3 3 4 4 4 5 8 10 10 5 7 8 9 9 10 10 14 14 10 9 10 10 11 11 10 10 9 8 8 6 5 5 5 4 2 3 3 3 4 3 2 2 3
Wind_Direction
189 191 187 160 144 118 108 71 59 63 61 58 57 59 51 45 41 35 16 9 3 338 303 288 277 269 264 257 251 246 240 236 231 219 210 201 200 202 208 219 228 231 232
182 179 179 165 149 136 124 107 98 91 77 70 62 56 53 47 43 38 31 18 14 7 348 317 297 285 275 267 259 253 248 243 233 222 213 205 201 201 200 203 212 220 228
181 171 165 153 130 119 112 100 90 83 78 70 62 54 48 43 43 40 36 28 18 17 12 359 338 311 288 275 268 261 255 248 243 235 226 218 210 205 204 203 206 211 218
165 148 134 114 101 98 99 98 87 78 67 72 76 58 42 38 46 52 50 43 35 28 23 24 19 8 346 317 296 281 268 262 259 254 250 244 236 228 221 218 217 217 221
130 114 103 95 92 82 79 90 66 78 71 69 97 80 52 50 51 63 58 50 47 43 37 32 33 32 29 23 15 0 331 302 282 271 263 258 253 244 233 232 233 233 233
111 106 101 100 96 91 77 80 88 67 64 46 83 77 59 65 67 62 57 53 51 52 48 44 35 30 33 30 24 17 6 351 331 314 293 278 271 259 248 242 239 237 238
111 113 118 107 103 105 117 126 108 85 49 355 84 65 54 60 71 59 56 59 55 49 49 46 40 33 22 23 19 14 7 356 340 326 313 304 295 276 259 247 241 239 238
121 127 131 126 120 116 113 118 130 114 60 18 87 89 36 17 36 45 42 60 52 40 37 33 29 23 15 10 0 3 356 347 335 325 315 310 305 294 273 258 250 247 244
116 120 124 122 121 123 124 116 121 127 122 47 36 117 137 232 313 336 346 23 15 24 5 340 351 346 340 338 330 336 334 330 321 312 307 306 303 295 285 273 261 255 252
103 112 117 119 120 120 119 113 100 110 121 119 64 46 79 134 183 315 307 297 308 313 308 307 307 298 294 293 294 308 311 312 308 304 299 296 295 292 285 279 271 262 257
93 104 108 110 112 111 106 103 101 94 96 117 119 109 94 72 106 206 282 302 304 283 274 273 275 276 276 270 269 277 292 298 297 294 291 289 286 284 282 278 273 268 262
91 96 103 102 106 107 107 107 104 103 103 110 119 135 154 172 199 207 247 273 287 292 288 271 262 264 268 265 267 288 295 296 295 291 287 284 281 279 278 276 273 269 266
106 101 105 106 105 104 106 106 99 98 106 113 141 178 199 214 206 207 239 266 268 274 276 271 258 261 270 268 272 289 295 296 294 291 288 285 282 278 275 273 272 272 269
112 113 109 102 98 95 93 86 79 72 72 69 56 289 252 255 224 219 237 272 290 281 258 262 270 262 271 275 274 287 288 289 290 289 287 284 281 279 276 273 270 269 269
112 103 95 82 72 71 72 72 64 57 61 53 42 24 328 298 285 260 249 247 278 297 297 277 266 271 279 282 280 282 276 281 287 287 285 283 280 277 275 272 270 267 266
91 89 79 77 72 69 74 78 76 67 65 45 25 12 344 314 309 300 286 270 256 275 290 283 279 281 284 287 288 287 282 284 285 284 282 280 278 275 273 270 267 264 262
84 86 89 88 85 83 81 80 73 57 47 24 7 350 331 319 309 306 299 288 276 271 286 295 283 281 278 280 285 285 282 279 276 276 278 279 278 276 274 272 270 268 263
81 90 96 97 94 88 80 75 61 46 30 7 348 336 326 323 310 300 292 286 282 273 278 294 298 292 281 280 281 280 282 278 275 277 278 279 278 276 276 274 270 269 267
86 89 94 95 92 86 75 63 52 32 9 345 331 322 315 312 305 300 296 288 284 284 277 285 293 291 285 282 283 280 279 277 278 278 278 276 276 275 276 276 272 267 265
86 83 82 83 78 70 59 40 23 5 347 333 323 313 307 299 291 293 294 290 290 289 285 282 287 290 287 284 277 283 287 281 280 283 279 275 272 273 273 273 270 268 263
75 74 73 63 49 43 32 18 357 347 337 329 324 317 308 304 306 308 308 305 301 295 293 289 289 292 294 296 290 286 288 291 285 274 273 274 274 270 270 269 268 266 264
54 54 51 45 30 21 10 8 359 341 330 323 319 317 312 307 312 315 314 313 310 306 305 297 296 297 299 298 295 291 289 291 289 270 267 280 277 273 268 259 257 257 257
47 43 34 32 19 358 7 1 354 343 323 315 311 311 311 311 315 310 313 314 309 304 301 300 298 297 297 298 295 292 285 285 283 280 281 284 279 276 272 266 261 254 249
38 31 31 29 17 359 1 357 348 341 324 318 313 307 305 310 315 320 317 311 307 305 302 299 290 292 293 293 291 289 289 287 279 277 272 281 284 280 280 268 259 251 245
36 31 29 21 4 341 344 346 350 335 328 324 319 317 316 316 315 320 320 312 309 309 309 303 295 291 290 290 292 294 299 303 305 302 286 274 288 293 287 279 267 253 243
39 28 19 3 348 333 334 344 350 338 331 327 322 322 321 318 317 320 318 309 309 314 314 312 309 307 304 300 299 293 298 301 305 297 296 294 286 300 297 286 282 265 242